Weather History for Providence, RI

Change the Weather History Date:

Wednesday, December 19, 2012

  Actual Average Record
Temperature  
Mean Temperature 43 °F 33 °F  
Max Temperature 48 °F 41 °F 57 °F (1990)
Min Temperature 37 °F 25 °F -4 °F (1942)
Degree Days  
Heating Degree Days 22 32  
Month to date heating degree days 443 549  
Since 1 July heating degree days 1468 1624  
Cooling Degree Days 0 0  
Month to date cooling degree days 0 0  
Year to date cooling degree days 834 744  
Moisture  
Dew Point 31 °F    
Average Humidity 66    
Maximum Humidity 82    
Minimum Humidity 49    
Precipitation  
Precipitation 0.00 in 0.13 in 1.34 in (1934)
Month to date precipitation 2.82 2.75  
Year to date precipitation 38.46 45.71  
Snow  
Snow 0.00 in 0.30 in 10.60 in (1945)
Month to date snowfall 0.3 4.9  
Since 1 July snowfall 1.6 6.4  
Snow Depth 0.00 in    
Sea Level Pressure  
Sea Level Pressure 29.68 in    
Wind  
Wind Speed 14 mph (NW)    
Max Wind Speed 29 mph    
Max Gust Speed 38 mph    
Visibility 10 miles    
Events      
T = Trace of Precipitation, MM = Missing Value Source: NWS Daily Summary

Daily Weather History Graph

Daily Weather History Graph

Search for Another Location

Airport:

Trip Planner

Search our weather history database for the weather conditions in past years. The results will help you decide how hot, cold, wet, or windy it might be!

Date:

Astronomy

Dec. 19, 2012 Rise Set
Actual Time 7:08 AM EST 4:17 PM EST
Civil Twilight 6:37 AM EST 4:49 PM EST
Nautical Twilight 6:01 AM EST 5:24 PM EST
Astronomical Twilight 5:28 AM EST 5:58 PM EST
Moon 11:10 AM EST (12/19) 11:48 PM EST (12/19)
Length of Visible Light 10h 12m
Length of Day
9h 08m
Waxing Crescent, 45% of the Moon is Illuminated
Dec 19
Waxing Crescent
Dec 20
First Quarter
Dec 28
Full
Jan 4
Last Quarter
Jan 11
New

Hourly Weather History & Observations

Time (EST) Temp. Windchill Dew Point Humidity Pressure Visibility Wind Dir Wind Speed Gust Speed Precip Events Conditions
12:00 AM 44.6 °F 39.2 °F 39.2 °F 81% 29.46 in 10.0 mi West 10.4 mph - N/A   Overcast
12:29 AM 44.6 °F 37.8 °F 39.2 °F 81% 29.48 in 10.0 mi West 15.0 mph - N/A   Mostly Cloudy
12:51 AM 44.1 °F 36.5 °F 37.0 °F 76% 29.48 in 10.0 mi WNW 17.3 mph 24.2 mph N/A   Mostly Cloudy
1:19 AM 42.8 °F 35.4 °F 35.6 °F 76% 29.48 in 10.0 mi WNW 15.0 mph 23.0 mph N/A   Scattered Clouds
1:51 AM 42.1 °F 35.2 °F 34.0 °F 73% 29.48 in 10.0 mi WNW 12.7 mph 21.9 mph N/A   Scattered Clouds
2:51 AM 42.1 °F 34.2 °F 33.1 °F 70% 29.49 in 10.0 mi WNW 16.1 mph 20.7 mph N/A   Scattered Clouds
3:51 AM 42.1 °F 34.9 °F 32.0 °F 67% 29.50 in 10.0 mi WNW 13.8 mph 21.9 mph N/A   Mostly Cloudy
4:51 AM 42.1 °F 34.9 °F 30.0 °F 62% 29.52 in 10.0 mi WNW 13.8 mph 27.6 mph N/A   Mostly Cloudy
5:51 AM 42.1 °F 35.7 °F 30.9 °F 65% 29.54 in 10.0 mi WNW 11.5 mph - N/A   Mostly Cloudy
6:51 AM 42.1 °F 34.5 °F 30.9 °F 65% 29.55 in 10.0 mi NW 15.0 mph 25.3 mph N/A   Mostly Cloudy
7:51 AM 42.1 °F 33.9 °F 30.0 °F 62% 29.57 in 10.0 mi NW 17.3 mph 24.2 mph N/A   Mostly Cloudy
8:51 AM 42.1 °F 33.3 °F 30.0 °F 62% 29.60 in 10.0 mi NW 19.6 mph 29.9 mph N/A   Mostly Cloudy
9:51 AM 44.1 °F 36.2 °F 30.0 °F 58% 29.60 in 10.0 mi NW 18.4 mph 28.8 mph N/A   Mostly Cloudy
10:51 AM 46.0 °F 41.0 °F 30.0 °F 54% 29.62 in 10.0 mi NW 10.4 mph 24.2 mph N/A   Mostly Cloudy
11:51 AM 46.9 °F - 30.0 °F 52% 29.63 in 10.0 mi NW 19.6 mph 25.3 mph N/A   Mostly Cloudy
12:51 PM 48.0 °F - 30.0 °F 50% 29.65 in 10.0 mi NW 20.7 mph 31.1 mph N/A   Scattered Clouds
1:51 PM 46.9 °F - 28.9 °F 50% 29.69 in 10.0 mi NNW 24.2 mph 33.4 mph N/A   Mostly Cloudy
2:51 PM 45.0 °F 36.6 °F 28.9 °F 53% 29.73 in 10.0 mi NNW 21.9 mph 31.1 mph N/A   Mostly Cloudy
3:51 PM 45.0 °F 38.2 °F 28.9 °F 53% 29.76 in 10.0 mi NNW 15.0 mph 19.6 mph N/A   Mostly Cloudy
4:51 PM 44.1 °F 37.1 °F 28.9 °F 55% 29.80 in 10.0 mi NNW 15.0 mph 27.6 mph N/A   Mostly Cloudy
5:51 PM 44.1 °F 37.7 °F 28.9 °F 55% 29.85 in 10.0 mi NNW 12.7 mph 21.9 mph N/A   Mostly Cloudy
6:51 PM 43.0 °F 37.7 °F 28.0 °F 56% 29.90 in 10.0 mi NNW 9.2 mph - N/A   Scattered Clouds
7:51 PM 41.0 °F 35.2 °F 28.0 °F 60% 29.93 in 10.0 mi NNW 9.2 mph - N/A   Partly Cloudy
8:51 PM 41.0 °F 35.8 °F 28.0 °F 60% 29.97 in 10.0 mi NNW 8.1 mph - N/A   Partly Cloudy
9:51 PM 39.9 °F 33.9 °F 28.9 °F 65% 30.00 in 10.0 mi NW 9.2 mph 18.4 mph N/A   Scattered Clouds
10:51 PM 37.9 °F 34.4 °F 28.9 °F 70% 30.02 in 10.0 mi NNW 4.6 mph - N/A   Partly Cloudy
11:51 PM 37.9 °F 33.5 °F 28.9 °F 70% 30.04 in 10.0 mi NNW 5.8 mph - N/A   Partly Cloudy